Location: Neu-Ulm
(48.3873°N, 10.0192°E)
Time: 03:27:41
(UTC+01:00)

ISS - Pass Details

Date: 11 January 2018
Orbit: 402 x 407 km, 51.6° (Epoch: 22 January)

Event Time Altitude Azimuth Distance (km) Brightness Sun altitude
Exits shadow 07:13:48 12° 278° (W) 1,360 -1.8 -8.9°
Maximum altitude 07:16:32 33° 214° (SW) 699 -2.7 -8.5°
Drops below altitude 10° 07:19:32 10° 148° (SSE) 1,463 -0.1 -8.0°
Sets 07:21:42 0° 139° (SE) 2,320 1.4 -7.7°
